UAE20 EGCC-OMDB

Flight info

Callsign UAE20
Flight time N/A
Altitude 37000
Route DESIG L603 DOLAS DCT NAVPI DCT NOLRU DCT DODEN DCT NEGIX DCT DINKU/N0481F390 M867 XERUM DCT BAVAX DCT RADIZ DCT DARZA DCT PINDO DCT PAXIS Y707 OBRAN L321 REXUM M872 MEDRO/N0485F410 M872 BDB Y214 RAPMA DCT KUVSO DCT KATIT DCT PEKEM M628 RIGIL G783 ELUDA/N0466F350 G783 ASPED Q308 KIPOK Q568 IMPED
Aircraft A388/J-SADE2E3FGHIJ3J4J5M1RWXY/LB1D1

Departure

Time N/A
Airport Manchester Airport (EGCC)

Arrival

Time 2026-05-03 23:26
Airport Dubai International Airport (OMDB)
Time Latitude Longitude Altitude Speed Heading
2026-05-03 20:15 28.77389 31.13192 37070 ft 550 kts 143°
2026-05-03 20:15 28.72058 31.19446 37071 ft 550 kts 143°
2026-05-03 20:16 28.66781 31.25772 37047 ft 550 kts 141°
2026-05-03 20:16 28.61687 31.32279 37076 ft 550 kts 141°
2026-05-03 20:17 28.56612 31.38718 37073 ft 549 kts 141°
2026-05-03 20:17 28.51486 31.45164 37074 ft 549 kts 141°
2026-05-03 20:18 28.46350 31.51604 37075 ft 549 kts 141°
2026-05-03 20:18 28.41232 31.58014 37075 ft 547 kts 141°
2026-05-03 20:19 28.36117 31.64406 37079 ft 547 kts 141°
2026-05-03 20:19 28.30991 31.70804 37029 ft 546 kts 141°
2026-05-03 20:20 28.25903 31.77144 37074 ft 547 kts 141°
2026-05-03 20:20 28.20787 31.83512 37079 ft 546 kts 142°
2026-05-03 20:21 28.15664 31.89878 37080 ft 546 kts 142°
2026-05-03 20:21 28.10530 31.96246 37078 ft 546 kts 142°
2026-05-03 20:22 28.05411 32.02604 37073 ft 548 kts 140°
2026-05-03 20:22 28.01037 32.09840 37057 ft 566 kts 126°
2026-05-03 20:23 27.97309 32.17685 37067 ft 566 kts 127°
2026-05-03 20:23 27.93546 32.25494 37050 ft 565 kts 127°
2026-05-03 20:24 27.89799 32.33249 36980 ft 564 kts 127°
2026-05-03 20:24 27.86032 32.41033 37014 ft 563 kts 127°
2026-05-03 20:25 27.82269 32.48794 37015 ft 564 kts 127°
2026-05-03 20:25 27.78497 32.56558 37012 ft 563 kts 127°
2026-05-03 20:26 27.74720 32.64320 36994 ft 563 kts 127°
2026-05-03 20:26 27.70936 32.72083 36999 ft 564 kts 127°
2026-05-03 20:27 27.67149 32.79836 36982 ft 563 kts 127°
2026-05-03 20:27 27.63365 32.87571 36977 ft 563 kts 127°
2026-05-03 20:28 27.59585 32.95277 36973 ft 566 kts 127°
2026-05-03 20:28 27.55776 33.03035 36972 ft 565 kts 127°
2026-05-03 20:29 27.51959 33.10795 36966 ft 565 kts 127°
2026-05-03 20:29 27.48143 33.18538 36956 ft 565 kts 127°
2026-05-03 20:30 27.44312 33.26297 36947 ft 565 kts 127°
2026-05-03 20:30 27.40517 33.33969 36942 ft 565 kts 127°
2026-05-03 20:31 27.36688 33.41696 36960 ft 565 kts 128°
2026-05-03 20:31 27.32853 33.49413 36933 ft 565 kts 128°
2026-05-03 20:32 27.29015 33.57124 36930 ft 565 kts 128°
2026-05-03 20:32 27.25170 33.64836 36931 ft 565 kts 128°
2026-05-03 20:33 27.21323 33.72537 36917 ft 565 kts 128°
2026-05-03 20:33 27.17553 33.80312 36939 ft 572 kts 122°
2026-05-03 20:34 27.14568 33.88650 36941 ft 576 kts 119°
2026-05-03 20:34 27.11621 33.96963 36898 ft 575 kts 119°
2026-05-03 20:35 27.08650 34.05297 36921 ft 574 kts 119°
2026-05-03 20:35 27.05676 34.13621 36913 ft 574 kts 119°
2026-05-03 20:36 27.02698 34.21941 36883 ft 574 kts 119°
2026-05-03 20:36 26.99722 34.30235 36911 ft 572 kts 120°
2026-05-03 20:37 26.96767 34.38450 36909 ft 572 kts 120°
2026-05-03 20:37 26.93764 34.46784 36911 ft 572 kts 120°
2026-05-03 20:38 26.90789 34.55021 36917 ft 573 kts 120°
2026-05-03 20:38 26.87794 34.63296 36914 ft 573 kts 120°
2026-05-03 20:39 26.84796 34.71561 36909 ft 573 kts 120°
2026-05-03 20:39 26.81792 34.79826 36922 ft 573 kts 120°
2026-05-03 20:40 26.78780 34.88095 36919 ft 573 kts 120°
2026-05-03 20:40 26.75767 34.96351 36922 ft 573 kts 120°
2026-05-03 20:41 26.72766 35.04563 36924 ft 572 kts 120°
2026-05-03 20:41 26.69749 35.12801 36924 ft 572 kts 120°
2026-05-03 20:42 26.66729 35.21032 36920 ft 572 kts 120°
2026-05-03 20:42 26.63705 35.29257 36915 ft 571 kts 120°
2026-05-03 20:43 26.60690 35.37437 36914 ft 570 kts 120°
2026-05-03 20:43 26.57671 35.45610 36912 ft 570 kts 120°
2026-05-03 20:44 26.54619 35.53772 36907 ft 568 kts 121°
2026-05-03 20:44 26.51509 35.61877 36903 ft 568 kts 121°
2026-05-03 20:45 26.48396 35.69994 36900 ft 568 kts 121°
2026-05-03 20:45 26.45288 35.78103 36842 ft 567 kts 121°
2026-05-03 20:46 26.42181 35.86196 36892 ft 567 kts 121°
2026-05-03 20:46 26.39087 35.94239 36893 ft 567 kts 121°
2026-05-03 20:47 26.35975 36.02310 36890 ft 567 kts 121°
2026-05-03 20:47 26.32847 36.10410 36884 ft 567 kts 121°
2026-05-03 20:48 26.29722 36.18486 36883 ft 567 kts 121°
2026-05-03 20:48 26.26590 36.26562 36858 ft 566 kts 121°
2026-05-03 20:49 26.23991 36.33253 36884 ft 566 kts 122°
2026-05-03 20:49 26.20350 36.42606 36878 ft 565 kts 122°
2026-05-03 20:50 26.17687 36.49288 36889 ft 561 kts 126°
2026-05-03 20:50 26.13954 36.56879 36879 ft 557 kts 127°
2026-05-03 20:51 26.10256 36.64392 36878 ft 557 kts 127°
2026-05-03 20:51 26.06525 36.71962 36881 ft 557 kts 127°
2026-05-03 20:52 26.02799 36.79501 36886 ft 556 kts 127°
2026-05-03 20:52 25.99065 36.87044 36895 ft 556 kts 127°
2026-05-03 20:53 25.95352 36.94530 36899 ft 556 kts 127°
2026-05-03 20:53 25.91616 37.02050 36905 ft 556 kts 127°
2026-05-03 20:54 25.87880 37.09559 36896 ft 555 kts 127°
2026-05-03 20:54 25.82261 37.20826 36890 ft 555 kts 127°
2026-05-03 20:55 25.78520 37.28323 36906 ft 555 kts 127°
2026-05-03 20:55 25.74787 37.35830 36920 ft 555 kts 127°
2026-05-03 20:56 25.71076 37.43280 36936 ft 555 kts 127°
2026-05-03 20:56 25.67351 37.50747 36930 ft 552 kts 127°
2026-05-03 20:57 25.63602 37.58232 36957 ft 556 kts 127°
2026-05-03 20:57 25.59853 37.65724 36954 ft 556 kts 127°
2026-05-03 20:58 25.56096 37.73213 36937 ft 556 kts 127°
2026-05-03 20:58 25.52337 37.80691 36935 ft 556 kts 127°
2026-05-03 20:59 25.48568 37.88178 36936 ft 556 kts 127°
2026-05-03 20:59 25.44796 37.95657 36934 ft 556 kts 127°
2026-05-03 21:00 25.41657 38.01872 36922 ft 558 kts 127°
2026-05-03 21:00 25.37250 38.10590 36923 ft 557 kts 127°
2026-05-03 21:01 25.33462 38.18067 36925 ft 557 kts 127°
2026-05-03 21:01 25.29655 38.25568 36925 ft 558 kts 127°
2026-05-03 21:02 25.25854 38.33049 36932 ft 558 kts 127°
2026-05-03 21:02 25.22050 38.40520 36936 ft 559 kts 127°
2026-05-03 21:03 25.18264 38.47945 36932 ft 558 kts 127°
2026-05-03 21:03 25.14454 38.55403 36938 ft 558 kts 127°
2026-05-03 21:04 25.10633 38.62859 36927 ft 558 kts 127°
2026-05-03 21:04 25.06798 38.70329 36942 ft 558 kts 127°
2026-05-03 21:05 25.02970 38.77778 36952 ft 559 kts 126°
2026-05-03 21:05 24.99134 38.85233 36962 ft 558 kts 127°
2026-05-03 21:06 24.95295 38.92680 36975 ft 557 kts 126°
2026-05-03 21:06 24.91485 39.00045 36957 ft 556 kts 127°
2026-05-03 21:07 24.87647 39.07451 36954 ft 556 kts 127°
2026-05-03 21:07 24.83809 39.14845 36972 ft 555 kts 126°
2026-05-03 21:08 24.79975 39.22223 36971 ft 555 kts 126°
2026-05-03 21:08 24.76139 39.29600 36971 ft 555 kts 126°
2026-05-03 21:09 24.72297 39.36975 36974 ft 554 kts 126°
2026-05-03 21:09 24.68481 39.44290 36985 ft 554 kts 126°
2026-05-03 21:10 24.64643 39.51634 36995 ft 554 kts 126°
2026-05-03 21:10 24.60792 39.58992 37002 ft 555 kts 126°
2026-05-03 21:11 24.56990 39.66363 37016 ft 557 kts 122°
2026-05-03 21:11 24.54454 39.74505 37022 ft 571 kts 105°
2026-05-03 21:12 24.53535 39.83201 37010 ft 573 kts 99°
2026-05-03 21:12 24.52703 39.91928 37008 ft 573 kts 99°
2026-05-03 21:13 24.51857 40.00626 37008 ft 573 kts 100°
2026-05-03 21:13 24.51011 40.09306 37009 ft 571 kts 99°
2026-05-03 21:14 24.50167 40.17909 37007 ft 571 kts 99°
2026-05-03 21:14 24.49310 40.26606 37001 ft 570 kts 99°
2026-05-03 21:15 24.48452 40.35259 37010 ft 570 kts 99°
2026-05-03 21:15 24.47590 40.43911 37010 ft 570 kts 99°
2026-05-03 21:16 24.46723 40.52551 37012 ft 568 kts 99°
2026-05-03 21:16 24.45853 40.61172 37012 ft 568 kts 99°
2026-05-03 21:17 24.45125 40.68347 37015 ft 568 kts 99°
2026-05-03 21:17 24.44101 40.78379 37012 ft 570 kts 99°
2026-05-03 21:18 24.43212 40.87024 37012 ft 570 kts 100°
2026-05-03 21:18 24.42318 40.95682 37016 ft 569 kts 99°
2026-05-03 21:19 24.41422 41.04309 37023 ft 569 kts 99°
2026-05-03 21:19 24.40527 41.12880 37020 ft 569 kts 99°
2026-05-03 21:20 24.39621 41.21514 37026 ft 570 kts 99°
2026-05-03 21:20 24.38711 41.30154 37031 ft 569 kts 99°
2026-05-03 21:21 24.37795 41.38788 37028 ft 570 kts 99°
2026-05-03 21:21 24.36874 41.47433 37029 ft 570 kts 99°
2026-05-03 21:22 24.35947 41.56081 37028 ft 570 kts 100°
2026-05-03 21:22 24.35027 41.64624 37029 ft 567 kts 99°
2026-05-03 21:23 24.34095 41.73225 37026 ft 567 kts 99°
2026-05-03 21:23 24.33100 41.81783 37041 ft 562 kts 104°
2026-05-03 21:24 24.31091 41.90053 37021 ft 560 kts 110°
2026-05-03 21:24 24.28938 41.98223 37021 ft 560 kts 110°
2026-05-03 21:25 24.26786 42.06414 37023 ft 558 kts 110°
2026-05-03 21:25 24.24625 42.14601 37022 ft 558 kts 110°
2026-05-03 21:26 24.22461 42.22778 37024 ft 557 kts 110°
2026-05-03 21:26 24.20295 42.30941 37031 ft 557 kts 110°
2026-05-03 21:27 24.18141 42.39036 37031 ft 557 kts 110°
2026-05-03 21:27 24.15974 42.47169 37030 ft 556 kts 110°
2026-05-03 21:28 24.13804 42.55289 37033 ft 556 kts 110°
2026-05-03 21:28 24.11626 42.63417 37029 ft 555 kts 110°
2026-05-03 21:29 24.09451 42.71522 37040 ft 554 kts 110°
2026-05-03 21:29 24.07273 42.79616 37042 ft 554 kts 110°
2026-05-03 21:30 24.05103 42.87661 37049 ft 554 kts 110°
2026-05-03 21:30 24.02914 42.95758 37047 ft 554 kts 110°
2026-05-03 21:31 24.00725 43.03832 37040 ft 553 kts 110°
2026-05-03 21:31 23.98538 43.11886 37050 ft 552 kts 110°
2026-05-03 21:32 23.96342 43.19951 37050 ft 552 kts 110°
2026-05-03 21:32 23.94158 43.27956 37051 ft 552 kts 110°
2026-05-03 21:33 23.91961 43.35988 37051 ft 552 kts 110°
2026-05-03 21:33 23.89758 43.44027 37039 ft 551 kts 110°
2026-05-03 21:34 23.87558 43.52036 37037 ft 551 kts 110°
2026-05-03 21:34 23.85348 43.60061 37031 ft 551 kts 110°
2026-05-03 21:35 23.83141 43.68061 37027 ft 549 kts 110°
2026-05-03 21:35 23.80931 43.76051 37039 ft 549 kts 110°
2026-05-03 21:36 23.79095 43.82676 37021 ft 549 kts 110°
2026-05-03 21:36 23.77269 43.90769 37013 ft 551 kts 100°
2026-05-03 21:37 23.76624 43.99144 36999 ft 553 kts 97°
2026-05-03 21:37 23.76007 44.07512 37012 ft 552 kts 97°
2026-05-03 21:38 23.75385 44.15806 37026 ft 554 kts 97°
2026-05-03 21:38 23.74750 44.24224 37003 ft 554 kts 97°
2026-05-03 21:39 23.74115 44.32598 36998 ft 552 kts 97°
2026-05-03 21:39 23.73475 44.40961 36997 ft 553 kts 97°
2026-05-03 21:40 23.72832 44.49318 36999 ft 551 kts 97°
2026-05-03 21:40 23.72186 44.57653 37001 ft 551 kts 97°
2026-05-03 21:41 23.71540 44.65934 36997 ft 551 kts 97°
2026-05-03 21:41 23.70885 44.74257 37008 ft 551 kts 97°
2026-05-03 21:42 23.70226 44.82583 37001 ft 551 kts 97°
2026-05-03 21:42 23.69563 44.90916 37003 ft 551 kts 97°
2026-05-03 21:43 23.68893 44.99243 36991 ft 552 kts 98°
2026-05-03 21:43 23.68220 45.07568 37000 ft 549 kts 97°
2026-05-03 21:44 23.67544 45.15869 36993 ft 549 kts 97°
2026-05-03 21:44 23.66862 45.24177 36993 ft 549 kts 98°
2026-05-03 21:45 23.66178 45.32475 36990 ft 549 kts 98°
2026-05-03 21:45 23.65488 45.40781 36979 ft 550 kts 98°
2026-05-03 21:46 23.64799 45.49032 36982 ft 550 kts 98°
2026-05-03 21:46 23.64100 45.57335 36968 ft 549 kts 97°
2026-05-03 21:47 23.63397 45.65632 36971 ft 549 kts 97°
2026-05-03 21:47 23.62690 45.73927 36969 ft 549 kts 98°
2026-05-03 21:48 23.61978 45.82218 36949 ft 549 kts 97°
2026-05-03 21:48 23.61262 45.90510 36951 ft 549 kts 98°
2026-05-03 21:49 23.60543 45.98791 36952 ft 548 kts 98°
2026-05-03 21:49 23.59819 46.07066 36951 ft 548 kts 98°
2026-05-03 21:50 23.59090 46.15350 36967 ft 548 kts 98°
2026-05-03 21:50 23.58365 46.23545 36960 ft 547 kts 98°
2026-05-03 21:51 23.57623 46.31864 36969 ft 547 kts 98°
2026-05-03 21:51 23.56883 46.40125 36968 ft 547 kts 98°
2026-05-03 21:52 23.56144 46.48329 36971 ft 547 kts 98°
2026-05-03 21:52 23.55395 46.56583 36968 ft 547 kts 98°
2026-05-03 21:53 23.54643 46.64818 36966 ft 546 kts 98°
2026-05-03 21:53 23.53888 46.73054 36958 ft 546 kts 98°
2026-05-03 21:54 23.53127 46.81299 36941 ft 546 kts 98°
2026-05-03 21:54 23.52362 46.89532 36947 ft 546 kts 98°
2026-05-03 21:55 23.51598 46.97706 36941 ft 546 kts 98°
2026-05-03 21:55 23.50818 47.05995 36925 ft 546 kts 98°
2026-05-03 21:56 23.50045 47.14179 36918 ft 546 kts 98°
2026-05-03 21:56 23.49265 47.22398 36922 ft 546 kts 98°
2026-05-03 21:57 23.48481 47.30616 36919 ft 546 kts 98°
2026-05-03 21:57 23.47691 47.38840 36915 ft 546 kts 98°
2026-05-03 21:58 23.46896 47.47075 36906 ft 546 kts 98°
2026-05-03 21:58 23.46098 47.55294 36899 ft 546 kts 98°
2026-05-03 21:59 23.45294 47.63524 36897 ft 547 kts 98°
2026-05-03 21:59 23.44492 47.71700 36891 ft 545 kts 98°
2026-05-03 22:00 23.43682 47.79904 36893 ft 545 kts 98°
2026-05-03 22:00 23.42868 47.88110 36884 ft 545 kts 98°
2026-05-03 22:01 23.42050 47.96314 36876 ft 545 kts 98°
2026-05-03 22:01 23.41226 48.04530 36869 ft 546 kts 98°
2026-05-03 22:02 23.40397 48.12750 36861 ft 545 kts 98°
2026-05-03 22:02 23.39564 48.20967 36858 ft 546 kts 98°
2026-05-03 22:03 23.38733 48.29117 36856 ft 544 kts 98°
2026-05-03 22:03 23.38079 48.37333 36856 ft 546 kts 94°
2026-05-03 22:04 23.37765 48.45594 36856 ft 546 kts 94°
2026-05-03 22:04 23.37432 48.53838 36852 ft 545 kts 94°
2026-05-03 22:05 23.37093 48.62099 36857 ft 546 kts 94°
2026-05-03 22:05 23.36751 48.70311 36853 ft 546 kts 94°
2026-05-03 22:06 23.36403 48.78571 36853 ft 546 kts 94°
2026-05-03 22:06 23.36052 48.86817 36847 ft 546 kts 94°
2026-05-03 22:07 23.35697 48.95046 36844 ft 544 kts 94°
2026-05-03 22:07 23.35338 49.03276 36840 ft 544 kts 94°
2026-05-03 22:08 23.34491 49.11435 36838 ft 543 kts 101°
2026-05-03 22:08 23.33314 49.19558 36838 ft 543 kts 101°
2026-05-03 22:09 23.32153 49.27684 36838 ft 543 kts 101°
2026-05-03 22:10 23.30401 49.39846 36834 ft 545 kts 101°
2026-05-03 22:10 23.29220 49.47983 36830 ft 543 kts 101°
2026-05-03 22:11 23.28037 49.56105 36830 ft 544 kts 101°
2026-05-03 22:11 23.26848 49.64234 36830 ft 544 kts 101°
2026-05-03 22:12 23.25655 49.72367 36829 ft 544 kts 101°
2026-05-03 22:12 23.24457 49.80503 36826 ft 545 kts 101°
2026-05-03 22:13 23.23253 49.88643 36828 ft 545 kts 101°
2026-05-03 22:13 23.22054 49.96727 36828 ft 545 kts 101°
2026-05-03 22:14 23.20844 50.04853 36825 ft 543 kts 101°
2026-05-03 22:14 23.19633 50.12956 36823 ft 543 kts 101°
2026-05-03 22:15 23.18418 50.21058 36824 ft 544 kts 101°
2026-05-03 22:15 23.17195 50.29181 36823 ft 544 kts 101°
2026-05-03 22:16 23.15969 50.37295 36825 ft 544 kts 101°
2026-05-03 22:16 23.14737 50.45421 36821 ft 545 kts 101°
2026-05-03 22:17 23.13499 50.53556 36817 ft 545 kts 101°
2026-05-03 22:17 23.12271 50.61603 36818 ft 543 kts 101°
2026-05-03 22:18 23.11030 50.69700 36818 ft 543 kts 101°
2026-05-03 22:18 23.09787 50.77788 36817 ft 543 kts 101°
2026-05-03 22:19 23.08537 50.85887 36814 ft 543 kts 101°
2026-05-03 22:19 23.07282 50.93992 36812 ft 544 kts 101°
2026-05-03 22:20 23.06024 51.02089 36814 ft 544 kts 101°
2026-05-03 22:20 23.04762 51.10183 36809 ft 544 kts 101°
2026-05-03 22:21 23.03496 51.18272 36806 ft 542 kts 101°
2026-05-03 22:21 23.02237 51.26290 36806 ft 542 kts 101°
2026-05-03 22:22 23.00966 51.34362 36793 ft 542 kts 101°
2026-05-03 22:22 22.99688 51.42442 36806 ft 543 kts 101°
2026-05-03 22:23 22.98623 51.49165 36806 ft 543 kts 101°
2026-05-03 22:23 22.97129 51.58551 36800 ft 543 kts 101°
2026-05-03 22:24 22.96048 51.65326 36803 ft 543 kts 101°
2026-05-03 22:24 22.94755 51.73398 36801 ft 543 kts 101°
2026-05-03 22:25 22.93464 51.81433 36796 ft 543 kts 101°
2026-05-03 22:25 22.92160 51.89527 36797 ft 544 kts 101°
2026-05-03 22:26 22.90849 51.97630 36806 ft 544 kts 101°
2026-05-03 22:26 22.89538 52.05714 36799 ft 545 kts 101°
2026-05-03 22:27 22.88217 52.13823 36795 ft 545 kts 101°
2026-05-03 22:27 22.86902 52.21874 36797 ft 545 kts 101°
2026-05-03 22:28 22.85577 52.29961 36801 ft 544 kts 101°
2026-05-03 22:28 22.84255 52.38001 36797 ft 544 kts 101°
2026-05-03 22:29 22.82923 52.46095 36802 ft 544 kts 101°
2026-05-03 22:29 22.82289 52.54277 36803 ft 546 kts 91°
2026-05-03 22:30 22.82102 52.62497 36801 ft 546 kts 92°
2026-05-03 22:30 22.81892 52.70742 36800 ft 546 kts 92°
2026-05-03 22:31 22.81674 52.78968 36802 ft 547 kts 92°
2026-05-03 22:31 22.81452 52.87170 36798 ft 547 kts 92°
2026-05-03 22:32 22.81226 52.95408 36798 ft 547 kts 92°
2026-05-03 22:32 22.80996 53.03639 36799 ft 545 kts 92°
2026-05-03 22:33 22.80761 53.11861 36800 ft 545 kts 92°
2026-05-03 22:33 22.80523 53.20093 36796 ft 545 kts 92°
2026-05-03 22:34 22.80281 53.28273 36799 ft 547 kts 92°
2026-05-03 22:34 22.80033 53.36517 36794 ft 547 kts 92°
2026-05-03 22:35 22.79782 53.44745 36797 ft 547 kts 92°
2026-05-03 22:35 22.79526 53.52979 36798 ft 547 kts 92°
2026-05-03 22:36 22.79266 53.61224 36795 ft 547 kts 92°
2026-05-03 22:36 22.79002 53.69449 36792 ft 547 kts 92°
2026-05-03 22:37 22.78733 53.77691 36793 ft 547 kts 92°
2026-05-03 22:37 22.78460 53.85927 36793 ft 547 kts 92°
2026-05-03 22:38 22.78184 53.94151 36646 ft 545 kts 92°
2026-05-03 22:38 22.78605 54.02314 36589 ft 544 kts 79°
2026-05-03 22:38 22.79387 54.06279 36762 ft 546 kts 76°
2026-05-03 22:39 22.80224 54.10310 36792 ft 547 kts 77°
2026-05-03 22:39 22.81854 54.18359 36791 ft 545 kts 77°
2026-05-03 22:40 22.83477 54.26393 36789 ft 546 kts 77°
2026-05-03 22:40 22.85105 54.34452 36789 ft 546 kts 77°
2026-05-03 22:41 22.86717 54.42442 36789 ft 546 kts 77°
2026-05-03 22:41 22.88335 54.50485 36795 ft 546 kts 77°
2026-05-03 22:42 22.89951 54.58543 36785 ft 546 kts 77°
2026-05-03 22:42 22.91563 54.66598 36785 ft 546 kts 77°
2026-05-03 22:43 22.93173 54.74671 36784 ft 546 kts 77°
2026-05-03 22:43 22.94778 54.82739 36782 ft 547 kts 77°
2026-05-03 22:44 22.96377 54.90801 36782 ft 547 kts 77°
2026-05-03 22:44 22.97974 54.98872 36787 ft 547 kts 77°
2026-05-03 22:45 22.99564 55.06934 36785 ft 541 kts 77°
2026-05-03 22:45 23.00340 55.10882 36786 ft 528 kts 77°
2026-05-03 22:45 23.01143 55.14735 36745 ft 520 kts 72°
2026-05-03 22:45 23.02411 55.18356 36460 ft 518 kts 60°
2026-05-03 22:46 23.04278 55.21678 36159 ft 514 kts 50°
2026-05-03 22:46 23.06653 55.24535 35822 ft 506 kts 38°
2026-05-03 22:46 23.09434 55.26823 35439 ft 498 kts 27°
2026-05-03 22:46 23.12532 55.28479 34950 ft 497 kts 15°
2026-05-03 22:47 23.15890 55.29422 34833 ft 500 kts
2026-05-03 22:47 23.22871 55.30437 34796 ft 515 kts
2026-05-03 22:48 23.29916 55.32114 34799 ft 522 kts 10°
2026-05-03 22:48 23.36989 55.34167 34795 ft 527 kts 11°
2026-05-03 22:49 23.44071 55.36276 34804 ft 528 kts 11°
2026-05-03 22:49 23.51121 55.38367 34803 ft 527 kts 11°
2026-05-03 22:50 23.58204 55.40464 34803 ft 528 kts 11°
2026-05-03 22:50 23.65294 55.42563 34799 ft 528 kts 11°
2026-05-03 22:51 23.72380 55.44663 34810 ft 528 kts 11°
2026-05-03 22:51 23.79435 55.46758 34761 ft 527 kts 10°
2026-05-03 22:52 23.86533 55.48866 34506 ft 527 kts 10°
2026-05-03 22:52 23.90058 55.49914 34307 ft 524 kts 10°
2026-05-03 22:52 23.93582 55.50961 34100 ft 523 kts 10°
2026-05-03 22:52 23.97074 55.52083 33895 ft 525 kts 15°
2026-05-03 22:53 24.00421 55.53708 33689 ft 529 kts 24°
2026-05-03 22:53 24.03549 55.55863 33464 ft 536 kts 32°
2026-05-03 22:53 24.06434 55.58522 33214 ft 547 kts 38°
2026-05-03 22:53 24.09247 55.61330 32814 ft 546 kts 38°
2026-05-03 22:54 24.12050 55.64109 32225 ft 541 kts 38°
2026-05-03 22:54 24.14833 55.66865 31696 ft 536 kts 37°
2026-05-03 22:54 24.17599 55.69605 31175 ft 533 kts 37°
2026-05-03 22:54 24.20317 55.72298 30672 ft 536 kts 37°
2026-05-03 22:55 24.23101 55.75058 30176 ft 538 kts 37°
2026-05-03 22:55 24.25870 55.77809 29633 ft 537 kts 37°
2026-05-03 22:55 24.28641 55.80565 29129 ft 537 kts 37°
2026-05-03 22:55 24.31401 55.83311 28617 ft 533 kts 38°
2026-05-03 22:56 24.34134 55.86034 28108 ft 528 kts 38°
2026-05-03 22:56 24.36840 55.88731 27599 ft 524 kts 38°
2026-05-03 22:56 24.39536 55.91419 27083 ft 520 kts 38°
2026-05-03 22:56 24.42202 55.94077 26575 ft 515 kts 38°
2026-05-03 22:57 24.44839 55.96708 26073 ft 510 kts 38°
2026-05-03 22:57 24.47452 55.99315 25583 ft 505 kts 38°
2026-05-03 22:57 24.50040 56.01898 25082 ft 501 kts 38°
2026-05-03 22:57 24.52581 56.04437 24617 ft 497 kts 38°
2026-05-03 22:58 24.55133 56.06989 24145 ft 493 kts 38°
2026-05-03 22:58 24.57690 56.09472 23683 ft 488 kts 34°
2026-05-03 22:58 24.60538 56.11451 23177 ft 479 kts 22°
2026-05-03 22:58 24.63615 56.12745 22587 ft 470 kts 12°
2026-05-03 22:59 24.66791 56.13409 22072 ft 462 kts
2026-05-03 22:59 24.69952 56.13961 21449 ft 458 kts
2026-05-03 22:59 24.73070 56.14528 20622 ft 452 kts
2026-05-03 22:59 24.76156 56.15018 19798 ft 442 kts
2026-05-03 23:00 24.79198 56.14926 19033 ft 431 kts 349°
2026-05-03 23:00 24.82069 56.14231 18491 ft 416 kts 340°
2026-05-03 23:00 24.84706 56.13061 17947 ft 401 kts 334°
2026-05-03 23:00 24.87218 56.11805 17364 ft 391 kts 335°
2026-05-03 23:01 24.89678 56.10602 16780 ft 381 kts 335°
2026-05-03 23:01 24.92071 56.09434 16361 ft 369 kts 335°
2026-05-03 23:01 24.94377 56.08306 16126 ft 357 kts 334°
2026-05-03 23:01 24.96540 56.07011 15786 ft 350 kts 325°
2026-05-03 23:02 24.98449 56.05387 15457 ft 345 kts 317°
2026-05-03 23:02 25.00101 56.03496 15116 ft 340 kts 311°
2026-05-03 23:02 25.01655 56.01560 14792 ft 335 kts 311°
2026-05-03 23:02 25.03210 55.99658 14465 ft 332 kts 312°
2026-05-03 23:03 25.04731 55.97805 14160 ft 328 kts 312°
2026-05-03 23:03 25.06254 55.95947 13841 ft 325 kts 312°
2026-05-03 23:03 25.07760 55.94106 13565 ft 320 kts 311°
2026-05-03 23:03 25.09226 55.92310 13447 ft 309 kts 311°
2026-05-03 23:04 25.10645 55.90569 13228 ft 303 kts 311°
2026-05-03 23:04 25.12055 55.88837 12853 ft 303 kts 311°
2026-05-03 23:04 25.13459 55.87113 12482 ft 302 kts 311°
2026-05-03 23:04 25.14860 55.85393 12085 ft 300 kts 311°
2026-05-03 23:05 25.16126 55.83599 11657 ft 292 kts 302°
2026-05-03 23:05 25.17162 55.81701 11283 ft 284 kts 301°
2026-05-03 23:05 25.18180 55.79854 10931 ft 280 kts 300°
2026-05-03 23:05 25.19027 55.77928 10580 ft 278 kts 290°
2026-05-03 23:06 25.19412 55.76579 10346 ft 279 kts 284°
2026-05-03 23:06 25.19775 55.74472 10008 ft 277 kts 281°
2026-05-03 23:06 25.20119 55.72391 9794 ft 275 kts 281°
2026-05-03 23:06 25.20600 55.69627 9292 ft 276 kts 282°
2026-05-03 23:07 25.20846 55.68222 9048 ft 273 kts 282°
2026-05-03 23:07 25.21206 55.66165 8667 ft 271 kts 281°
2026-05-03 23:07 25.21559 55.64135 8305 ft 269 kts 281°
2026-05-03 23:07 25.21909 55.62108 8053 ft 267 kts 281°
2026-05-03 23:08 25.22252 55.60118 7910 ft 267 kts 281°
2026-05-03 23:08 25.22602 55.58090 7766 ft 268 kts 281°
2026-05-03 23:08 25.22989 55.56077 7620 ft 268 kts 286°
2026-05-03 23:08 25.23657 55.54170 7481 ft 264 kts 296°
2026-05-03 23:09 25.24575 55.52462 7317 ft 254 kts 301°
2026-05-03 23:09 25.25503 55.50837 7178 ft 245 kts 300°
2026-05-03 23:09 25.26392 55.49236 7032 ft 243 kts 300°
2026-05-03 23:09 25.27267 55.47649 6972 ft 240 kts 300°
2026-05-03 23:10 25.28133 55.46077 6976 ft 241 kts 300°
2026-05-03 23:10 25.29007 55.44493 6928 ft 245 kts 300°
2026-05-03 23:10 25.29898 55.42884 6834 ft 246 kts 300°
2026-05-03 23:10 25.30793 55.41280 6736 ft 244 kts 300°
2026-05-03 23:11 25.31686 55.39682 6677 ft 244 kts 300°
2026-05-03 23:11 25.32574 55.38091 6576 ft 244 kts 300°
2026-05-03 23:11 25.33464 55.36495 6415 ft 243 kts 300°
2026-05-03 23:11 25.34353 55.34900 6277 ft 243 kts 300°
2026-05-03 23:12 25.35240 55.33307 6129 ft 242 kts 300°
2026-05-03 23:12 25.36112 55.31739 6003 ft 246 kts 300°
2026-05-03 23:12 25.37045 55.30052 5869 ft 264 kts 300°
2026-05-03 23:12 25.38020 55.28291 5723 ft 269 kts 300°
2026-05-03 23:13 25.38996 55.26530 5588 ft 269 kts 300°
2026-05-03 23:13 25.39974 55.24770 5428 ft 268 kts 300°
2026-05-03 23:13 25.40951 55.23009 5288 ft 269 kts 300°
2026-05-03 23:13 25.41930 55.21243 5126 ft 268 kts 300°
2026-05-03 23:14 25.42906 55.19483 5004 ft 268 kts 300°
2026-05-03 23:14 25.43878 55.17728 4867 ft 267 kts 300°
2026-05-03 23:14 25.44848 55.15978 4725 ft 267 kts 300°
2026-05-03 23:14 25.45819 55.14225 4592 ft 267 kts 300°
2026-05-03 23:15 25.46789 55.12472 4438 ft 268 kts 300°
2026-05-03 23:15 25.47749 55.10734 4278 ft 259 kts 300°
2026-05-03 23:15 25.48647 55.09113 4120 ft 247 kts 300°
2026-05-03 23:15 25.49517 55.07543 3977 ft 236 kts 300°
2026-05-03 23:16 25.50356 55.06028 3827 ft 226 kts 300°
2026-05-03 23:16 25.51153 55.04569 3675 ft 216 kts 295°
2026-05-03 23:16 25.51531 55.02997 3526 ft 212 kts 269°
2026-05-03 23:16 25.51200 55.01468 3416 ft 198 kts 244°
2026-05-03 23:17 25.50351 55.00379 3304 ft 179 kts 221°
2026-05-03 23:17 25.49307 54.99714 3177 ft 169 kts 214°
2026-05-03 23:17 25.48315 54.99059 3025 ft 165 kts 216°
2026-05-03 23:17 25.47204 54.98688 3014 ft 175 kts 182°
2026-05-03 23:18 25.46055 54.99233 3028 ft 194 kts 141°
2026-05-03 23:18 25.45228 55.00468 3029 ft 205 kts 122°
2026-05-03 23:18 25.44568 55.01873 3021 ft 205 kts 118°
2026-05-03 23:18 25.43921 55.03276 3023 ft 205 kts 120°
2026-05-03 23:19 25.43227 55.04673 3019 ft 207 kts 122°
2026-05-03 23:19 25.42502 55.06047 3018 ft 206 kts 123°
2026-05-03 23:19 25.41761 55.07400 3019 ft 205 kts 123°
2026-05-03 23:19 25.41030 55.08719 3018 ft 199 kts 123°
2026-05-03 23:20 25.40318 55.10003 3019 ft 194 kts 123°
2026-05-03 23:20 25.39610 55.11271 3020 ft 192 kts 125°
2026-05-03 23:20 25.38869 55.12506 3020 ft 193 kts 127°
2026-05-03 23:20 25.38108 55.13727 3022 ft 193 kts 127°
2026-05-03 23:21 25.37349 55.14945 3024 ft 192 kts 127°
2026-05-03 23:21 25.36595 55.16164 3023 ft 193 kts 127°
2026-05-03 23:21 25.35842 55.17392 3019 ft 193 kts 126°
2026-05-03 23:21 25.35100 55.18618 3018 ft 190 kts 125°
2026-05-03 23:22 25.33785 55.21117 3004 ft 186 kts 124°
2026-05-03 23:22 25.33101 55.22334 2787 ft 187 kts 124°
2026-05-03 23:22 25.32432 55.23556 2562 ft 184 kts 123°
2026-05-03 23:23 25.31767 55.24748 2342 ft 185 kts 123°
2026-05-03 23:23 25.31096 55.25961 2100 ft 185 kts 123°
2026-05-03 23:23 25.30423 55.27172 1866 ft 185 kts 122°
2026-05-03 23:23 25.29755 55.28380 1637 ft 184 kts 123°
2026-05-03 23:24 25.29086 55.29582 1395 ft 181 kts 122°
2026-05-03 23:24 25.28431 55.30764 1166 ft 179 kts 123°
2026-05-03 23:24 25.27780 55.31941 900 ft 183 kts 122°
2026-05-03 23:24 25.27104 55.33190 656 ft 194 kts 122°
2026-05-03 23:25 25.26399 55.34440 382 ft 187 kts 124°
2026-05-03 23:25 25.25767 55.35582 219 ft 166 kts 123°
2026-05-03 23:25 25.25183 55.36648 45 ft 161 kts 123°
2026-05-03 23:25 25.24598 55.37622 27 ft 135 kts 123°
2026-05-03 23:26 25.24269 55.38252 32 ft 51 kts 120°
2026-05-03 23:26 25.24173 55.38373 31 ft 0 kts 142°
2026-05-03 23:26 25.24106 55.38429 30 ft 15 kts 145°
2026-05-03 23:27 25.24009 55.38474 28 ft 12 kts 197°
2026-05-03 23:27 25.23988 55.38431 27 ft 7 kts 266°
2026-05-03 23:27 25.24001 55.38371 27 ft 9 kts 298°
2026-05-03 23:27 25.24036 55.38302 27 ft 11 kts 303°
2026-05-03 23:28 25.24083 55.38223 27 ft 13 kts 303°
2026-05-03 23:28 25.24135 55.38135 27 ft 14 kts 303°
2026-05-03 23:28 25.24192 55.38038 27 ft 16 kts 301°
2026-05-03 23:28 25.24248 55.37929 26 ft 17 kts 300°
2026-05-03 23:29 25.24313 55.37818 26 ft 18 kts 302°
2026-05-03 23:29 25.24374 55.37699 26 ft 18 kts 299°
2026-05-03 23:29 25.24438 55.37576 29 ft 18 kts 303°
2026-05-03 23:29 25.24507 55.37467 26 ft 17 kts 297°
2026-05-03 23:30 25.24571 55.37358 26 ft 17 kts 305°
2026-05-03 23:30 25.24636 55.37244 27 ft 18 kts 302°
2026-05-03 23:30 25.24700 55.37125 27 ft 18 kts 300°
2026-05-03 23:30 25.24752 55.37029 27 ft 0 kts 301°
2026-05-03 23:31 25.24763 55.37009 27 ft 7 kts 291°
2026-05-03 23:31 25.24751 55.36947 26 ft 10 kts 237°
2026-05-03 23:31 25.24740 55.36882 26 ft 9 kts 284°
2026-05-03 23:31 25.24764 55.36808 26 ft 11 kts 289°
2026-05-03 23:32 25.24786 55.36718 26 ft 13 kts 284°
2026-05-03 23:32 25.24816 55.36621 26 ft 14 kts 296°
2026-05-03 23:32 25.24863 55.36534 31 ft 0 kts 302°
2026-05-03 23:32 25.24873 55.36505 31 ft 6 kts 263°
2026-05-03 23:33 25.24857 55.36476 32 ft 5 kts 217°
2026-05-03 23:33 25.24841 55.36464 30 ft 2 kts 213°
2026-05-03 23:33 25.24823 55.36451 29 ft 1 kts 211°
2026-05-03 23:33 25.24809 55.36442 30 ft 0 kts 210°
2026-05-03 23:34 25.24803 55.36438 29 ft 1 kts 211°
2026-05-03 23:34 25.24802 55.36437 29 ft 0 kts 211°
2026-05-03 23:34 25.24801 55.36436 29 ft 0 kts 211°